Location: Killam
(52.7910°N, 111.8608°W)
Time: 07:47:01
(UTC+00:00)

AO-73 - Visible Passes

Search period start: 11 March 2026 00:00
Search period end: 21 March 2026 00:00
Orbit: 517 x 568 km, 97.8° (Epoch: 10 March)

Date Brightness Start Highest point End Pass type
(mag) Time Alt. Az. Time Alt. Az. Time Alt. Az.
11 Mar ? 10:53:23 10° NNE 10:57:01 38° E 10:57:12 38° ESE visible
11 Mar ? 12:28:16 10° N 12:31:26 24° WNW 12:32:45 20° W visible
12 Mar ? 10:46:50 10° NNE 10:50:21 33° E 10:50:38 32° ESE visible
12 Mar ? 12:21:32 10° N 12:24:51 28° WNW 12:26:12 22° W visible
13 Mar ? 10:40:17 10° NE 10:43:39 28° E 10:44:04 27° ESE visible
13 Mar ? 12:14:48 10° N 12:18:14 32° WNW 12:19:38 24° WSW visible
14 Mar ? 10:33:45 10° NE 10:36:55 24° E 10:37:29 23° ESE visible
14 Mar ? 12:08:03 10° N 12:11:36 36° WNW 12:13:03 26° WSW visible
15 Mar ? 10:27:13 10° NE 10:30:10 21° E 10:30:53 20° ESE visible
15 Mar ? 12:01:18 10° N 12:04:56 42° WNW 12:06:27 28° WSW visible
16 Mar ? 10:20:42 10° NE 10:23:24 18° E 10:24:16 17° ESE visible
16 Mar ? 11:54:32 10° N 11:58:15 49° WNW 11:59:49 29° SW visible
17 Mar ? 10:14:13 10° NE 10:16:35 16° E 10:17:38 14° ESE visible
17 Mar ? 11:47:46 10° N 11:51:33 58° WNW 11:53:11 30° SW visible
18 Mar ? 10:07:50 10° ENE 10:09:46 13° E 10:10:58 12° ESE visible
18 Mar ? 11:41:00 10° N 11:44:48 69° WNW 11:46:31 30° SSW visible
19 Mar ? 10:01:35 10° ENE 10:02:55 12° E 10:04:16 10° ESE visible
19 Mar ? 11:34:14 10° NNE 11:38:03 81° WNW 11:39:51 30° SSW visible
20 Mar ? 11:27:26 10° NNE 11:31:16 85° ESE 11:33:09 28° SSW visible
